Flag for Honduras Weather past 2 weeks in Tegucigalpa, Honduras

Now
86 °F

Scattered clouds.


Feels Like: 87 °F
Forecast: 66 / 85 °F
Wind: 12 mph from Northeast

Location: Tegucigalpa Airport

Current Time: Sep 1, 2015 at 2:29:33 PM

Latest Report: Sep 1, 2015 at 2:00 PM


Visibility: N/A

Pressure: 30.07 "Hg (26.70 "Hg at 1054m altitude)

Humidity: 46%

Dew point: 63 °F

Location of TegucigalpaLocation

Historic Weather in Tegucigalpa — Graph

°F

Tegucigalpa temperature yesterday

Maximum temperature yesterday: 90 °F (at 2:00 PM)
Minimum temperature yesterday: 68 °F (at 6:00 AM)
Average temperature yesterday: 78 °F

Past Weeks' High & Low Weather Summary

 TemperatureHumidityPressure
High93 °F (Aug 30, 3:00 PM)100% (Aug 18, 2:00 AM)30.15 "Hg (Aug 18, 2:00 AM)
Low36 °F (Aug 25, 11:00 PM)28% (Aug 25, 2:00 PM)29.95 "Hg (Aug 28, 4:00 PM)
Average77 °F65%30.07 "Hg
* Reported Aug 17 1:00 PM — Sep 1 1:00 PM, Tegucigalpa, Weather by CustomWeather, © 2015

Note: Actual official high and low records may vary slightly from our data, if they occured in-between our weather recording intervals... More about our weather records

Advertising

Tegucigalpa weather history for previous 24 hours

 ConditionsComfort  
Time TempWeatherWind HumidityBarometerVisibility
1:00 PM
Tue, Sep 1
86 °FScattered clouds.8 mph46%30.07 "HgN/A
12:00 PM86 °FScattered clouds.7 mph46%30.09 "HgN/A
11:00 AM84 °FScattered clouds.8 mph51%30.12 "HgN/A
10:00 AM82 °FBroken clouds.8 mph55%30.12 "HgN/A
9:00 AM77 °FPartly sunny.7 mph69%30.12 "HgN/A
8:00 AM75 °FPartly sunny.7 mph78%30.12 "HgN/A
7:00 AM72 °FBroken clouds.7 mph83%30.12 "HgN/A
6:00 AM70 °FPartly sunny.5 mph88%30.09 "HgN/A
5:00 AM70 °FPartly cloudy.No wind83%30.09 "HgN/A
4:00 AM72 °FPartly cloudy.No wind78%30.09 "HgN/A
3:00 AM72 °FPartly cloudy.2 mph78%30.09 "HgN/A
2:00 AM72 °FPartly cloudy.No wind83%30.12 "HgN/A
1:00 AM72 °FPartly cloudy.No wind78%30.12 "HgN/A
12:00 AM72 °FPassing clouds.No wind83%30.15 "HgN/A
11:00 PM
Mon, Aug 31
72 °FPassing clouds.5 mph83%30.15 "HgN/A
10:00 PM73 °FPassing clouds.No wind78%30.15 "HgN/A
9:00 PM77 °FPassing clouds.No wind69%30.07 "HgN/A
8:00 PM77 °FPassing clouds.3 mph69%30.07 "HgN/A
7:00 PM79 °FPassing clouds.2 mph61%30.07 "HgN/A
6:01 PM79 °FThunderstorms. Passing clouds.3 mph61%30.04 "HgN/A
5:00 PM86 °FScattered clouds.5 mph46%30.01 "HgN/A
3:00 PM90 °FScattered clouds.5 mph41%30.01 "HgN/A
2:00 PM90 °FScattered clouds.5 mph38%30.04 "HgN/A
Weather by CustomWeather, © 2015

See weather overviewHow to use our weather pages